When you browse on this site, cookies collect data to enhance your experience and personalize the content and advertising you see.
Visit our Privacy Policy to learn more. By continuing to use the site, you agree to this use of cookies and data.
  • In Belgium
  • List of Countries
  • For 7 days
  • Water Temperature
  • Satellite Maps
  • Weather Map
  • Weather Widgets
  • user-avatar
    Login

    Hourly Weather Mons

    Today, 20 February, Wednesday

    Time Temperature Precipitation Wind Pressure Humidity
    00:00 +5°C° 0 mm 2 mps 763 mmHg 87%
    01:00 +4°C° 0 mm 2 mps 763 mmHg 88%
    02:00 +3°C° 0 mm 3 mps 763 mmHg 90%
    03:00 +3°C° 0 mm 3 mps 763 mmHg 91%
    04:00 +3°C° 0 mm 3 mps 763 mmHg 92%
    05:00 +3°C° 0 mm 3 mps 763 mmHg 93%
    06:00 +2°C° 0 mm 3 mps 764 mmHg 95%
    07:00 +3°C° 0 mm 3 mps 764 mmHg 91%
    08:00 +4°C° 0 mm 4 mps 764 mmHg 88%
    09:00 +5°C° 0 mm 4 mps 764 mmHg 85%
    10:00 +6°C° 0 mm 4 mps 764 mmHg 78%
    11:00 +8°C° 0 mm 4 mps 764 mmHg 72%
    12:00 +10°C° 0 mm 4 mps 764 mmHg 66%
    13:00 +11°C° 0 mm 4 mps 764 mmHg 65%
    14:00 +11°C° 0 mm 4 mps 764 mmHg 65%
    15:00 +12°C° 0 mm 4 mps 764 mmHg 64%
    16:00 +10°C° 0 mm 3 mps 764 mmHg 71%
    17:00 +9°C° 0 mm 3 mps 764 mmHg 78%
    18:00 +8°C° 0 mm 2 mps 765 mmHg 85%
    19:00 +7°C° 0 mm 2 mps 765 mmHg 87%
    20:00 +7°C° 0 mm 2 mps 765 mmHg 89%
    21:00 +7°C° 0 mm 3 mps 766 mmHg 91%
    22:00 +5°C° 0 mm 3 mps 766 mmHg 91%
    23:00 +5°C° 0 mm 3 mps 766 mmHg 92%

    Tomorrow, 21 February, Thursday

    Time Temperature Precipitation Wind Pressure Humidity
    00:00 +5°C° 0 mm 3 mps 766 mmHg 92%
    01:00 +5°C° 0 mm 3 mps 766 mmHg 91%
    02:00 +7°C° 0 mm 3 mps 766 mmHg 91%
    03:00 +7°C° 0 mm 3 mps 766 mmHg 90%
    04:00 +5°C° 0 mm 3 mps 767 mmHg 91%
    05:00 +5°C° 0 mm 3 mps 767 mmHg 92%
    06:00 +4°C° 0 mm 3 mps 767 mmHg 93%
    07:00 +5°C° 0 mm 3 mps 767 mmHg 90%
    08:00 +7°C° 0 mm 3 mps 767 mmHg 87%
    09:00 +8°C° 0 mm 3 mps 768 mmHg 84%
    10:00 +10°C° 0 mm 3 mps 768 mmHg 79%
    11:00 +11°C° 0 mm 3 mps 768 mmHg 73%
    12:00 +13°C° 0 mm 3 mps 768 mmHg 68%
    13:00 +13°C° 0 mm 3 mps 768 mmHg 67%
    14:00 +14°C° 0 mm 2 mps 768 mmHg 67%
    15:00 +14°C° 0 mm 2 mps 768 mmHg 66%
    16:00 +13°C° 0 mm 2 mps 768 mmHg 72%
    17:00 +12°C° 0 mm 1 mps 769 mmHg 78%
    18:00 +10°C° 0 mm 1 mps 769 mmHg 84%
    19:00 +10°C° 0 mm 1 mps 769 mmHg 85%
    20:00 +9°C° 0 mm 1 mps 770 mmHg 86%
    21:00 +9°C° 0 mm 1 mps 770 mmHg 87%
    22:00 +9°C° 0 mm 1 mps 770 mmHg 88%
    23:00 +9°C° 0 mm 1 mps 771 mmHg 88%

    Day after tomorrow, 22 February, Friday

    Time Temperature Precipitation Wind Pressure Humidity
    00:00 +8°C° 0 mm 1 mps 771 mmHg 88%
    01:00 +8°C° 0 mm 1 mps 771 mmHg 89%
    02:00 +8°C° 0 mm 1 mps 771 mmHg 89%
    03:00 +8°C° 0 mm 1 mps 772 mmHg 89%
    04:00 +8°C° 0 mm 1 mps 772 mmHg 89%
    05:00 +7°C° 0 mm 1 mps 772 mmHg 89%
    06:00 +6°C° 0 mm 0 mps 772 mmHg 89%
    07:00 +7°C° 0 mm 0 mps 772 mmHg 86%
    08:00 +9°C° 0 mm 0 mps 773 mmHg 83%
    09:00 +10°C° 0 mm 0 mps 773 mmHg 79%
    10:00 +12°C° 0 mm 1 mps 773 mmHg 74%
    11:00 +14°C° 0 mm 1 mps 773 mmHg 69%
    12:00 +15°C° 0 mm 1 mps 773 mmHg 64%
    13:00 +15°C° 0 mm 1 mps 773 mmHg 63%
    14:00 +16°C° 0 mm 2 mps 773 mmHg 62%
    15:00 +16°C° 0 mm 2 mps 773 mmHg 62%
    16:00 +15°C° 0 mm 2 mps 773 mmHg 68%
    17:00 +13°C° 0 mm 2 mps 773 mmHg 74%
    18:00 +10°C° 0 mm 2 mps 773 mmHg 81%
    19:00 +10°C° 0 mm 2 mps 774 mmHg 84%
    20:00 +10°C° 0 mm 2 mps 774 mmHg 88%
    21:00 +9°C° 0 mm 2 mps 774 mmHg 92%
    22:00 +9°C° 0 mm 2 mps 774 mmHg 92%
    23:00 +8°C° 0 mm 2 mps 774 mmHg 93%

    23 February, Saturday

    Time Temperature Precipitation Wind Pressure Humidity
    00:00 +8°C° 0 mm 2 mps 774 mmHg 93%
    01:00 +7°C° 0 mm 2 mps 773 mmHg 93%
    02:00 +7°C° 0 mm 2 mps 773 mmHg 92%
    03:00 +6°C° 0 mm 2 mps 773 mmHg 91%
    04:00 +6°C° 0 mm 2 mps 773 mmHg 91%
    05:00 +5°C° 0 mm 3 mps 773 mmHg 91%
    06:00 +5°C° 0 mm 3 mps 773 mmHg 91%
    07:00 +7°C° 0 mm 3 mps 773 mmHg 86%
    08:00 +8°C° 0 mm 3 mps 773 mmHg 81%
    09:00 +9°C° 0 mm 3 mps 773 mmHg 76%
    10:00 +10°C° 0 mm 3 mps 773 mmHg 71%
    11:00 +11°C° 0 mm 3 mps 773 mmHg 65%
    12:00 +13°C° 0 mm 3 mps 773 mmHg 59%
    13:00 +13°C° 0 mm 3 mps 773 mmHg 57%
    14:00 +14°C° 0 mm 3 mps 772 mmHg 55%
    15:00 +14°C° 0 mm 3 mps 772 mmHg 52%
    16:00 +13°C° 0 mm 3 mps 772 mmHg 56%
    17:00 +11°C° 0 mm 3 mps 772 mmHg 60%
    18:00 +9°C° 0 mm 2 mps 772 mmHg 64%
    19:00 +8°C° 0 mm 3 mps 772 mmHg 62%
    20:00 +7°C° 0 mm 3 mps 772 mmHg 59%
    21:00 +7°C° 0 mm 3 mps 773 mmHg 57%
    22:00 +5°C° 0 mm 3 mps 773 mmHg 56%
    23:00 +5°C° 0 mm 2 mps 773 mmHg 55%

    24 February, Sunday

    Time Temperature Precipitation Wind Pressure Humidity
    00:00 +5°C° 0 mm 2 mps 773 mmHg 54%
    01:00 +5°C° 0 mm 2 mps 773 mmHg 54%
    02:00 +4°C° 0 mm 2 mps 772 mmHg 55%
    03:00 +4°C° 0 mm 2 mps 772 mmHg 55%
    04:00 +4°C° 0 mm 2 mps 772 mmHg 54%
    05:00 +4°C° 0 mm 2 mps 773 mmHg 53%
    06:00 +4°C° 0 mm 2 mps 773 mmHg 53%
    07:00 +5°C° 0 mm 2 mps 773 mmHg 51%
    08:00 +6°C° 0 mm 2 mps 773 mmHg 49%
    09:00 +7°C° 0 mm 2 mps 773 mmHg 48%
    10:00 +9°C° 0 mm 2 mps 773 mmHg 44%
    11:00 +12°C° 0 mm 2 mps 773 mmHg 40%
    12:00 +14°C° 0 mm 1 mps 773 mmHg 36%
    13:00 +14°C° 0 mm 2 mps 773 mmHg 38%
    14:00 +15°C° 0 mm 2 mps 773 mmHg 40%
    15:00 +15°C° 0 mm 2 mps 773 mmHg 43%
    16:00 +14°C° 0 mm 2 mps 773 mmHg 47%
    17:00 +12°C° 0 mm 2 mps 773 mmHg 52%
    18:00 +9°C° 0 mm 2 mps 773 mmHg 57%
    19:00 +9°C° 0 mm 2 mps 773 mmHg 58%
    20:00 +8°C° 0 mm 2 mps 773 mmHg 60%
    21:00 +9°C° 0 mm 1 mps 774 mmHg 61%
    22:00 +8°C° 0 mm 1 mps 774 mmHg 61%
    23:00 +8°C° 0 mm 1 mps 774 mmHg 61%

    25 February, Monday

    Time Temperature Precipitation Wind Pressure Humidity
    00:00 +7°C° 0 mm 1 mps 774 mmHg 61%
    01:00 +7°C° 0 mm 1 mps 774 mmHg 61%
    02:00 +7°C° 0 mm 1 mps 774 mmHg 60%
    03:00 +7°C° 0 mm 1 mps 774 mmHg 60%
    04:00 +6°C° 0 mm 1 mps 774 mmHg 61%
    05:00 +6°C° 0 mm 1 mps 774 mmHg 61%
    06:00 +5°C° 0 mm 2 mps 774 mmHg 62%
    07:00 +6°C° 0 mm 2 mps 774 mmHg 60%
    08:00 +7°C° 0 mm 2 mps 774 mmHg 59%
    09:00 +9°C° 0 mm 2 mps 775 mmHg 57%
    10:00 +10°C° 0 mm 2 mps 774 mmHg 55%
    11:00 +12°C° 0 mm 3 mps 774 mmHg 52%
    12:00 +14°C° 0 mm 3 mps 774 mmHg 50%
    13:00 +14°C° 0 mm 3 mps 774 mmHg 51%
    14:00 +14°C° 0 mm 3 mps 774 mmHg 53%
    15:00 +15°C° 0 mm 4 mps 773 mmHg 54%
    16:00 +13°C° 0 mm 4 mps 774 mmHg 60%
    17:00 +11°C° 0 mm 3 mps 774 mmHg 66%
    18:00 +10°C° 0 mm 3 mps 774 mmHg 72%
    19:00 +9°C° 0 mm 3 mps 774 mmHg 73%
    20:00 +9°C° 0 mm 3 mps 774 mmHg 75%
    21:00 +8°C° 0 mm 3 mps 774 mmHg 77%
    22:00 +8°C° 0 mm 3 mps 774 mmHg 78%
    23:00 +8°C° 0 mm 3 mps 774 mmHg 79%
    Show more